Torna al catalogo

STARLINK-5045

AttivoComunicazioniVLEO
NORAD 53900·PAYLOAD·🇺🇸 United States

Lanciato Sep 24, 2022 da Cape Canaveral Space Force Station

Loading…

Prossimi Passaggi (prossime 24 ore)

TLE

AggiornatoSource: CelesTrak SupGP

Epoca: Sep 14, 2026, 22:18 UTC

1 53900C 22119Q   26257.92965278  .00387020  00000+0  11608-1 0  2575
2 53900  53.1595 189.5351 0001504  93.2334  14.5317 15.33723390    11

Traccia STARLINK-5045 in tempo reale con AllMySat

Download on the App Store